Regional Weather Roundup
Issued by NWS

Home | Current Version | Previous Version | Text Only | Print | Product List | Glossary On
Versions: 1 2 3 4 5 6 7 8 9 10 11 12 13 14 15 16 17 18 19 20 21 22 23 24 25 26 27 28 29 30 31 32 33 34 35 36 37 38 39 40 41 42 43 44 45 46 47 48 49 50
000
ASUS43 KMKX 240021
RWRWI

WISCONSIN REGIONAL WEATHER ROUNDUP
NATIONAL WEATHER SERVICE MILWAUKEE/SULLIVAN WI
600 PM CST SUN NOV 23 2014

NOTE: "FAIR" INDICATES FEW OR NO CLOUDS BELOW 12,000 FEET WITH NO
SIGNIFICANT WEATHER AND/OR OBSTRUCTIONS TO VISIBILITY.

WIZ001-002-006>008-014>016-023>028-240100-
NORTHWEST WISCONSIN

CITY           SKY/WX    TMP DP  RH WIND       PRES   REMARKS
SUPERIOR ARPT  CLOUDY    37  37  99 SW3       29.38R FOG
6HR MIN TEMP:  37; 6HR MAX TEMP:  41; 6HR PCP:  0.02;

ASHLAND        FOG       40  40 100 E5        29.37F VSB 1/4
6HR MIN TEMP:  40; 6HR MAX TEMP:  48;

HAYWARD        FOG       40  38  93 NE3       29.35S VSB 1/2
6HR MIN TEMP:  38; 6HR MAX TEMP:  45; 6HR PCP:  0.02;

SIREN          CLOUDY    37  37  97 CALM      29.38S FOG
6HR MIN TEMP:  37; 6HR MAX TEMP:  44;

CUMBERLAND     RAIN      36  36 100 N8        29.35F WCI  29
RICE LAKE      RAIN      40  40  99 NW5       29.36F VSB 1/4
6HR MIN TEMP:  38; 6HR MAX TEMP:  44; 6HR PCP:  0.01;

CHETEK         FOG       39  39 100 W7        29.34F VSB 1/4 WCI  34
6HR MIN TEMP:  38; 6HR MAX TEMP:  44; 6HR PCP:  0.02;

LADYSMITH      FOG       44  43  97 SE5       29.36F VSB 1/4
6HR MIN TEMP:  42; 6HR MAX TEMP:  46;

EAU CLAIRE     CLOUDY    47  46  97 CALM      29.33F FOG
6HR MIN TEMP:  47; 6HR MAX TEMP:  50;

MENOMONIE      DRZL/FOG  46  46  99 W10       29.34S VSB 1/4
6HR MIN TEMP:  46; 6HR MAX TEMP:  50; 6HR PCP:  0.01;

NEW RICHMOND   CLOUDY    37  37 100 NW7       29.38S FOG     WCI  32
6HR MIN TEMP:  37; 6HR MAX TEMP:  46; 6HR PCP:  0.04;

OSCEOLA        CLOUDY    37  37 100 W5        29.41S WCI  34
6HR MIN TEMP:  37; 6HR MAX TEMP:  44; 6HR PCP:  0.01;

$$

WIZ003>005-009-010-017-018-240100-
NORTH CENTRAL WISCONSIN

CITY           SKY/WX    TMP DP  RH WIND       PRES   REMARKS
MANITOWISH WTR FOG       41  41 100 SE6       29.36S VSB 1/4
6HR MIN TEMP:  40; 6HR MAX TEMP:  43;

ARBOR VITAE    FOG       43  42  97 S3        29.36F VSB 1/4
6HR MIN TEMP:  42; 6HR MAX TEMP:  44;

WOODRUFF       FOG       43  42  97 S3        29.36F VSB 1/4
6HR MIN TEMP:  42; 6HR MAX TEMP:  44;

RHINELANDER    LGT RAIN  42  42 100 CALM      29.38F VSB 3/4
6HR MIN TEMP:  41; 6HR MAX TEMP:  44; 6HR PCP:  0.10;

EAGLE RIVER    RAIN      42  42 100 CALM      29.37F
6HR MIN TEMP:  41; 6HR MAX TEMP:  45; 6HR PCP:  0.05;

LAND O LAKES   DRIZZLE   44  44 100 CALM      29.38S
6HR MIN TEMP:  43; 6HR MAX TEMP:  45;

PHILLIPS       FOG       41  41 100 CALM      29.35S VSB 1/4
6HR MIN TEMP:  41; 6HR MAX TEMP:  44;

TOMAHAWK       RAIN      42  41  97 CALM      29.37F VSB 1/2
6HR MIN TEMP:  41; 6HR MAX TEMP:  44; 6HR PCP:  0.12;

MEDFORD        RAIN      43  43 100 SE5       29.35F VSB 3/4
6HR MIN TEMP:  40; 6HR MAX TEMP:  43; 6HR PCP:  0.07;

MERRILL        LGT RAIN  44  44 100 CALM      29.37F VSB 1/4
6HR MIN TEMP:  43; 6HR MAX TEMP:  46; 6HR PCP:  0.02;

$$

WIZ029-030-035-036-043>047-240100-
CENTRAL WISCONSIN

CITY           SKY/WX    TMP DP  RH WIND       PRES   REMARKS
WAUSAU         FOG       44  44 100 E5        29.36F VSB 1/4
6HR MIN TEMP:  44; 6HR MAX TEMP:  47; 6HR PCP:  0.04;

MOSINEE        LGT RAIN  45  45 100 CALM      29.37F VSB 1/4
MARSHFIELD     LGT RAIN  46  45  96 SE3       29.35F VSB 1/4
6HR MIN TEMP:  46; 6HR MAX TEMP:  48; 6HR PCP: TRACE;

STEVENS POINT  CLOUDY    44  44 100 SE5       29.37F FOG
6HR MIN TEMP:  44; 6HR MAX TEMP:  46; 6HR PCP:  0.01;

WAUPACA        DRIZZLE   47  46  97 SE6       29.38F
6HR MIN TEMP:  47; 6HR MAX TEMP:  51; 6HR PCP:  0.13;

WAUTOMA        CLOUDY    46  46 100 SE6       29.35F FOG
6HR MIN TEMP:  47; 6HR MAX TEMP:  50; 6HR PCP: TRACE;

WISC RAPIDS    CLOUDY    47  45  93 SE5       29.37F FOG
6HR MIN TEMP:  47; 6HR MAX TEMP:  50; 6HR PCP:  0.05;

CAMP DOUGLAS   LGT RAIN  46  46 100 N2        29.33F FOG
                                      6HR PCP:  0.11;

$$

WIZ011>013-019>022-031-037>040-048>050-240100-
NORTHEAST WISCONSIN

CITY           SKY/WX    TMP DP  RH WIND       PRES   REMARKS
ANTIGO         FOG       39  39 100 SE3       29.38F VSB<1/4
6HR MIN TEMP:  38; 6HR MAX TEMP:  42;

SHAWANO        DRIZZLE   47  46  94 CALM      29.41S
6HR MIN TEMP:  47; 6HR MAX TEMP:  50; 6HR PCP:  0.05;

OCONTO         CLOUDY    42  42 100 S8        29.41F
6HR MIN TEMP:  42; 6HR MAX TEMP:  46; 6HR PCP:  0.06;

STURGEON BAY   CLOUDY    45  41  87 S10       29.43F
6HR MIN TEMP:  45; 6HR MAX TEMP:  45;

GREEN BAY      LGT RAIN  45  44  97 SE8       29.41F FOG
6HR MIN TEMP:  44; 6HR MAX TEMP:  48; 6HR PCP:  0.12;

MANITOWOC      LGT RAIN  45  45 100 S13       29.43F FOG
6HR MIN TEMP:  44; 6HR MAX TEMP:  46; 6HR PCP:  0.17;

APPLETON       LGT RAIN  45  45 100 VRB5      29.40F VSB 1/4
CLINTONVILLE   DRZL/FOG  45  45 100 CALM      29.40F VSB 3/4
OSHKOSH        LGT RAIN  46  45  96 SE7       29.39F VSB 3/4
6HR MIN TEMP:  44; 6HR MAX TEMP:  49; 6HR PCP:  0.24;

$$

WIZ032>034-041-042-053>061-240100-
SOUTHWEST WISCONSIN

CITY           SKY/WX    TMP DP  RH WIND       PRES   REMARKS
LA CROSSE      LGT RAIN  48  47  96 CALM      29.33F VSB 1/2
6HR MIN TEMP:  48; 6HR MAX TEMP:  51; 6HR PCP:  0.17;

SPARTA         CLOUDY    47  47 100 CALM      29.35F
6HR MIN TEMP:  46; 6HR MAX TEMP:  51; 6HR PCP:  0.02;

VIROQUA        CLOUDY    46  46 100 SE7       29.33F
6HR MIN TEMP:  46; 6HR MAX TEMP:  49; 6HR PCP:  0.05;

BOSCOBEL       LGT RAIN  48  47  96 NE3       29.33F
6HR MIN TEMP:  48; 6HR MAX TEMP:  52; 6HR PCP:  0.33;

PRAIRIE DU CHI CLOUDY    47  46  95 CALM      29.32F
6HR MIN TEMP:  47; 6HR MAX TEMP:  51; 6HR PCP:  0.27;

PLATTEVILLE    CLOUDY    47  46  97 E7        29.32F
6HR MIN TEMP:  47; 6HR MAX TEMP:  49; 6HR PCP:  0.57;

$$

WIZ056-057-062-063-064-067-068-240100-
SOUTH CENTRAL WISCONSIN

CITY           SKY/WX    TMP DP  RH WIND       PRES   REMARKS
REEDSBURG      RAIN      47  46  99 E3        29.34F
6HR MIN TEMP:  46; 6HR MAX TEMP:  49; 6HR PCP:  0.41;

BARABOO/DELLS  RAIN      46  45  94 CALM      29.34F
6HR MIN TEMP:  46; 6HR MAX TEMP:  49; 6HR PCP:  0.27;

LONE ROCK      LGT RAIN  51  46  83 E8        29.33F
6HR MIN TEMP:  50; 6HR MAX TEMP:  54; 6HR PCP:  0.52;

MINERAL POINT  LGT RAIN  48  46  93 SE7       29.32F
MADISON        LGT RAIN  48  47  96 SE6       29.36F FOG
6HR MIN TEMP:  47; 6HR MAX TEMP:  49; 6HR PCP:  0.37;

MIDDLETON      CLOUDY    48  48 100 E6        29.35F
6HR MIN TEMP:  48; 6HR MAX TEMP:  50; 6HR PCP:  0.29;

WATERTOWN      DRIZZLE   47  47 100 SE6       29.37F
6HR MIN TEMP:  46; 6HR MAX TEMP:  48; 6HR PCP:  0.04;

MONROE         DRIZZLE   46  46 100 E8        29.33F
JANESVILLE     DRIZZLE   50  46  87 SE8       29.36F
$$

WIZ051-052-058>065-066-070>072-240100-
SOUTHEAST WISCONSIN

CITY           SKY/WX    TMP DP  RH WIND       PRES   REMARKS
MILWAUKEE      LGT RAIN  47  45  93 SE8       29.40F FOG
6HR MIN TEMP:  47; 6HR MAX TEMP:  50; 6HR PCP:  0.16;

WAUKESHA       LGT RAIN  45  45 100 SE7       29.40F FOG
MILWAUKEE/TIMM RAIN      46  45  93 SE8       29.42F
RACINE         LGT RAIN  47  45  93 SE13      29.41F FOG
6HR MIN TEMP:  46; 6HR MAX TEMP:  48; 6HR PCP:  0.18;

BURLINGTON     LGT RAIN  45  45 100 E5        29.37F
6HR MIN TEMP:  45; 6HR MAX TEMP:  48; 6HR PCP:  0.02;

KENOSHA        LGT RAIN  48  47  96 SE12      29.39F FOG
6HR MIN TEMP:  48; 6HR MAX TEMP:  52; 6HR PCP:  0.17;

FOND DU LAC    LGT RAIN  47  45  93 SE6       29.39F FOG
6HR MIN TEMP:  47; 6HR MAX TEMP:  49; 6HR PCP:  0.22;

SHEBOYGAN      LGT RAIN  46  44  93 S12G20    29.42F FOG
6HR MIN TEMP:  44; 6HR MAX TEMP:  48; 6HR PCP:  0.27;

WEST BEND      LGT RAIN  45  43  93 SE3       29.40F
JUNEAU         DRZL/FOG  46  46  99 E5        29.38F VSB 3/4
6HR MIN TEMP:  46; 6HR MAX TEMP:  47; 6HR PCP:  0.24;

$$

LSZ147-162-240100-
LAKE SUPERIOR

STATION/POSITION TIME  TEMP    WIND        PRES    WAVE
                       AIR SEA DIR/SP/G            HT/PER
                 (UTC) (F)     (DEG/KT/KT) (MB)    (FT/S)
DEVILS ISLAND    0000   40     280/  7/  8  994.8F
PORT WING        2340   36     170/  2/  2  995.3S
SAXON HARBOR     2300   41      CALM  /  3  994.6
$$

LMZ867-665-643>646-240100-
LAKE MICHIGAN

STATION/POSITION TIME  TEMP    WIND        PRES    WAVE


USA.gov is the U.S. government's official web portal to all federal, state and local government web resources and services.